COSMOS 1295

导读 | 豆包AI

COSMOS 1295是苏联(CIS前身)于1981年8月12日08:00发射的宇宙系列卫星,隶属冷战时期苏联太空科研与军事卫星计划。作为代号Kosmos系列成员,它延续了该系列多用途任务定位,服务于航天技术试验、空间环境观测或国防侦察需求,是苏联80年代太空活动的重要组成部分,体现了当时苏联在近地轨道探索与军事航天领域的持续发展。

Basic Information
目录编号:
12681
目录名称:
COSMOS 1295
国际标识:
1981-077A
轨道中心:
EARTH
卫星名称:
COSMOS 1295
卫星全名:
--
卫星状态:
在轨 (已飞行16285 天)
发射日期:
1981-08-12 UTC
国别 :
俄罗斯(独联体) (CIS)
星等 :
--
Orbit Information
数据来源 国际轨道数据 AOE轨道数据
星历时间 2026-03-13T15:05:20+0800
18小时前
查看轨道信息
2026-03-08T04:00:00+0800
6天前
查看轨道信息
半长轴 7353.976km 7353.977km
偏心率 0.0044115 0.0043918
轨道倾角 82.921° 82.921°
近地点辐角 180.489° 195.677°
升交点赤经 192.138° 196.207°
平近点角 238.609° 169.414°
近地点 943.396km 943.542km
远地点 1008.282km 1008.138km
周期 104.603分钟 104.603分钟
每日圈数 13.766372 13.766368
Detailed Information
使用方式:
暂无
2D Orbit Map
3D Orbit Map
Orbit Altitude Analysis Chart
Orbit Inclination Analysis Chart
Orbit Comprehensive Analysis Chart
View Comprehensive Chart